Location: Unspecified
(0.0000°N, 0.0000°E)
Time: 10:33:39
(UTC+00:00)

Vanguard 2 - Pass Details

Date: 11 December 2017
Orbit: 553 x 2939 km, 32.9° (Epoch: 22 June)

Event Time Altitude Azimuth Distance (km) Brightness Sun altitude
Rises 23:01:55 0° 321° (NW) 3,092 - -63.7°
Reaches altitude 10° 23:04:02 10° 329° (NNW) 2,348 - -64.0°
Maximum altitude 23:09:16 43° 40° (NE) 1,439 - -64.5°
Drops below altitude 10° 23:17:34 10° 109° (ESE) 3,725 - -65.3°
Sets 23:21:47 0° 114° (ESE) 5,138 - -65.7°
